This demonstration page uses our WeatherBlox Daily Observations layout. Learn more.

Left ArrowRight Arrow

Hourly Observations for September 24, 2015

Temp ( °F °C ) Dew Point ( °F °C ) Humidity (%) Winds ( mph kmh ) Pressure ( in mb ) Visibility ( mi km ) Precip ( " mm )
12:53 am 00:53 Clear 56 13.3 53 11.7 90 90 Calm 30.2 1023 10 16.0934 0 0
1:53 am 01:53 Clear 57 13.9 52 11.1 83 83 N 3 6 30.2 1023 10 16.0934 0 0
2:53 am 02:53 Clear 55 12.8 53 11.7 93 93 Calm 30.21 1023 10 16.0934 0 0
3:53 am 03:53 Clear 53 11.7 51 10.6 93 93 Calm 30.21 1023 9 14.48406 0 0
4:53 am 04:53 Clear 51 10.6 50 10 96 96 Calm 30.2 1023 7 11.26538 0 0
5:53 am 05:53 Clear with Mist and Fog 51 10.6 50 10 96 96 Calm 30.22 1023 6 9.65604 0 0
6:53 am 06:53 Clear 51 10.6 50 10 96 96 NW 3 6 30.23 1024 9 14.48406 0 0
7:53 am 07:53 Sunny with Mist and Fog 51 10.6 49 9.4 92 92 Calm 30.25 1024 4 6.43736 0 0
8:53 am 08:53 Sunny 61 16.1 56 13.3 84 84 Calm 30.25 1025 9 14.48406 0 0
9:53 am 09:53 Sunny 66 18.9 56 13.3 70 70 E 5 7 30.25 1025 10 16.0934 0 0
10:53 am 10:53 Sunny 72 22.2 54 12.2 53 53 ENE 6 9 30.25 1024 10 16.0934 0 0
11:53 am 11:53 Sunny 77 25 50 10 39 39 E 8 13 30.24 1024 10 16.0934 0 0
12:53 pm 12:53 Sunny 80 26.7 51 10.6 37 37 N 6 9 30.23 1024 10 16.0934 0 0
1:53 pm 13:53 Sunny 82 27.8 49 9.4 32 32 E 9 15 30.22 1023 10 16.0934 0 0
2:53 pm 14:53 Sunny 82 27.8 47 8.3 29 29 Calm 30.19 1023 10 16.0934 0 0
3:53 pm 15:53 Sunny 83 28.3 47 8.3 28 28 N 3 6 30.18 1022 10 16.0934 0 0
4:53 pm 16:53 Sunny 84 28.9 46 7.8 27 27 E 8 13 30.17 1022 10 16.0934 0 0
5:53 pm 17:53 Sunny 84 28.9 46 7.8 27 27 NE 9 15 30.16 1021 10 16.0934 0 0
6:53 pm 18:53 Sunny 81 27.2 47 8.3 30 30 ENE 6 9 30.16 1021 10 16.0934 0 0
7:53 pm 19:53 Clear 65 18.3 53 11.7 66 66 Calm 30.16 1021 10 16.0934 0 0
8:53 pm 20:53 Clear 62 16.7 54 12.2 75 75 Calm 30.17 1022 10 16.0934 0 0
9:53 pm 21:53 Clear 60 15.6 54 12.2 80 80 Calm 30.18 1022 10 16.0934 0 0
10:53 pm 22:53 Clear 59 15 55 12.8 87 87 Calm 30.18 1022 10 16.0934 0 0
11:53 pm 23:53 Clear 58 14.4 54 12.2 87 87 Calm 30.19 1022 10 16.0934 0 0

Powered by AerisWeather